Location: Champignolles
(47.0543°N, 4.5663°E)
Time: 14:19:31
(UTC+00:00)

Helios 1A Rocket - Pass Details

Date: 30 November 2020
Orbit: 564 x 585 km, 98.3° (Epoch: 27 January)

Event Time Altitude Azimuth Distance (km) Brightness Sun altitude
Exits shadow 17:31:21 30° 63° (ENE) 1,038 3.6 -15.9°
Drops below altitude 10° 17:34:46 10° 6° (N) 1,870 5.3 -16.4°
Sets 17:37:06 0° 356° (N) 2,774 6.3 -16.8°
